Harrisburg, IL

12:22 AM CST on December 11, 2019 (GMT -0600)
Harrisburg-Raleigh

Weather History for KHSB - October, 2019

Change the Weather History Date:

Wednesday, October 16, 2019

  Actual Average (WUND) Record (WUND)
Temperature  
Mean Temperature 48 °F -  
Max Temperature 58 °F - - (-1)
Min Temperature 38 °F - - (-1)
Degree Days  
Heating Degree Days 16    
Moisture  
Dew Point 35 °F    
Average Humidity 59    
Maximum Humidity 89    
Minimum Humidity 41    
Precipitation  
Precipitation 0.00 in - - ()
Sea Level Pressure  
Sea Level Pressure 30.04 in    
Wind  
Wind Speed 10 mph ()    
Max Wind Speed 17 mph    
Max Gust Speed 30 mph    
Visibility 10.0 miles    
Events      
Averages and records for this station are not official NWS values.
T = Trace of Precipitation, MM = Missing Value Source: Averaged Metar Reports

Daily Weather History Graph

Daily Weather History Graph

Search for Another Location

Airport or City:

Astronomy

Oct. 16, 2019 Rise Set
Actual Time 7:03 AM CDT 6:15 PM CDT
Civil Twilight 6:36 AM CDT 6:42 PM CDT
Nautical Twilight 6:06 AM CDT 7:12 PM CDT
Astronomical Twilight 5:35 AM CDT 7:42 PM CDT
Moon 8:11 PM CDT (10/16) 9:31 AM CDT (10/16)
Length of Visible Light 12h 05m
Length of Day
11h 12m
Waning Gibbous, 92% of the Moon is Illuminated
Oct 16
Waning Gibbous
Oct 21
Last Quarter
Oct 27
New
Nov 4
First Quarter
Nov 12
Full

Hourly Weather History & Observations

Time (CDT) Temp. Windchill Dew Point Humidity Pressure Visibility Wind Dir Wind Speed Gust Speed Precip Events Conditions
12:15 AM 59.7 °F - 39.4 °F 47% 29.90 in 10.0 mi NNW 13.8 mph 25.3 mph N/A   Overcast
12:35 AM 58.8 °F - 38.5 °F 47% 29.90 in 10.0 mi NNW 11.5 mph 20.7 mph N/A   Overcast
12:55 AM 58.5 °F - 37.8 °F 46% 29.91 in 10.0 mi North 12.7 mph 23.0 mph N/A   Overcast
1:15 AM 57.9 °F - 38.1 °F 48% 29.92 in 10.0 mi NNW 11.5 mph 16.1 mph N/A   Overcast
1:35 AM 57.2 °F - 37.4 °F 48% 29.93 in 10.0 mi NNW 13.8 mph 25.3 mph N/A   Overcast
1:55 AM 55.9 °F - 37.6 °F 50% 29.94 in 10.0 mi NNW 13.8 mph 20.7 mph N/A   Overcast
2:15 AM 54.3 °F - 32.7 °F 44% 29.95 in 10.0 mi NNW 17.3 mph 29.9 mph N/A   Overcast
2:35 AM 52.3 °F - 33.1 °F 48% 29.96 in 10.0 mi NNW 12.7 mph 19.6 mph N/A   Mostly Cloudy
2:55 AM 51.3 °F - 32.9 °F 50% 29.96 in 10.0 mi NNW 10.4 mph 19.6 mph N/A   Clear
3:15 AM 50.7 °F - 33.4 °F 52% 29.96 in 10.0 mi NNW 15.0 mph 19.6 mph N/A   Clear
3:35 AM 49.8 °F - 34.0 °F 55% 29.95 in 10.0 mi NW 6.9 mph - N/A   Clear
3:55 AM 49.5 °F - 34.7 °F 57% 29.95 in 10.0 mi NW 8.1 mph 16.1 mph N/A   Clear
4:15 AM 48.4 °F - 36.1 °F 63% 29.96 in 10.0 mi NW 10.4 mph - N/A   Clear
4:35 AM 48.2 °F - 35.8 °F 62% 29.96 in 10.0 mi NW 8.1 mph - N/A   Clear
4:55 AM 47.5 °F - 35.4 °F 63% 29.96 in 10.0 mi NW 8.1 mph 17.3 mph N/A   Clear
5:15 AM 46.9 °F - 34.5 °F 62% 29.97 in 10.0 mi NW 12.7 mph 18.4 mph N/A   Clear
5:35 AM 46.4 °F 41.5 °F 34.0 °F 62% 29.99 in 10.0 mi NW 10.4 mph - N/A   Clear
5:55 AM 46.4 °F 41.1 °F 33.8 °F 62% 29.99 in 10.0 mi NW 11.5 mph 20.7 mph N/A   Clear
6:15 AM 45.9 °F 40.8 °F 34.0 °F 63% 29.99 in 10.0 mi NW 10.4 mph 18.4 mph N/A   Clear
6:35 AM 45.5 °F 41.3 °F 34.0 °F 64% 29.99 in 10.0 mi NNW 8.1 mph 18.4 mph N/A   Clear
6:55 AM 44.8 °F 40.4 °F 34.5 °F 67% 29.99 in 10.0 mi NW 8.1 mph - N/A   Clear
7:15 AM 44.2 °F 39.7 °F 35.1 °F 70% 30.00 in 10.0 mi NW 8.1 mph - N/A   Clear
7:35 AM 44.6 °F 40.2 °F 35.2 °F 70% 30.01 in 10.0 mi NW 8.1 mph - N/A   Clear
7:55 AM 44.8 °F 40.4 °F 35.8 °F 71% 30.02 in 10.0 mi NW 8.1 mph - N/A   Clear
8:15 AM 45.7 °F 39.8 °F 36.0 °F 69% 30.03 in 10.0 mi NW 12.7 mph - N/A   Clear
8:35 AM 46.6 °F - 36.1 °F 67% 30.04 in 10.0 mi NW 10.4 mph - N/A   Clear
8:55 AM 47.5 °F - 36.3 °F 65% 30.05 in 10.0 mi NW 11.5 mph 17.3 mph N/A   Clear
9:15 AM 48.4 °F - 36.3 °F 63% 30.06 in 10.0 mi NNW 11.5 mph 21.9 mph N/A   Clear
9:35 AM 49.3 °F - 36.3 °F 61% 30.06 in 10.0 mi NW 16.1 mph 21.9 mph N/A   Clear
9:55 AM 49.8 °F - 35.8 °F 59% 30.06 in 10.0 mi NNW 13.8 mph 20.7 mph N/A   Clear
10:15 AM 50.7 °F - 35.8 °F 57% 30.06 in 10.0 mi NW 11.5 mph 18.4 mph N/A   Clear
10:35 AM 51.8 °F - 35.8 °F 54% 30.07 in 10.0 mi NW 15.0 mph 20.7 mph N/A   Scattered Clouds
10:55 AM 52.7 °F - 35.2 °F 52% 30.07 in 10.0 mi NW 11.5 mph 17.3 mph N/A   Scattered Clouds
11:15 AM 53.2 °F - 35.2 °F 51% 30.06 in 10.0 mi NW 9.2 mph 18.4 mph N/A   Scattered Clouds
11:35 AM 54.1 °F - 34.9 °F 48% 30.06 in 10.0 mi NNW 15.0 mph 19.6 mph N/A   Scattered Clouds
11:55 AM 54.0 °F - 34.5 °F 48% 30.06 in 10.0 mi WNW 13.8 mph - N/A   Mostly Cloudy
12:15 PM 54.9 °F - 34.2 °F 46% 30.06 in 10.0 mi WNW 15.0 mph 25.3 mph N/A   Mostly Cloudy
12:35 PM 54.0 °F - 34.2 °F 47% 30.07 in 10.0 mi NW 13.8 mph 19.6 mph N/A   Overcast
12:55 PM 55.4 °F - 34.5 °F 45% 30.06 in 10.0 mi NW 12.7 mph 21.9 mph N/A   Overcast
1:15 PM 55.9 °F - 34.3 °F 44% 30.06 in 10.0 mi NW 16.1 mph 21.9 mph N/A   Overcast
1:35 PM 55.8 °F - 33.3 °F 43% 30.06 in 10.0 mi NNW 13.8 mph 20.7 mph N/A   Overcast
1:55 PM 55.2 °F - 32.9 °F 43% 30.06 in 10.0 mi WNW 15.0 mph 21.9 mph N/A   Overcast
2:15 PM 54.3 °F - 32.9 °F 44% 30.06 in 10.0 mi WNW 13.8 mph 18.4 mph N/A   Overcast
2:35 PM 54.5 °F - 33.3 °F 45% 30.06 in 10.0 mi WNW 13.8 mph 20.7 mph N/A   Mostly Cloudy
2:55 PM 54.5 °F - 32.4 °F 43% 30.06 in 10.0 mi NW 15.0 mph 21.9 mph N/A   Mostly Cloudy
3:15 PM 53.6 °F - 32.5 °F 45% 30.07 in 10.0 mi NW 13.8 mph - N/A   Mostly Cloudy
3:35 PM 55.9 °F - 32.4 °F 41% 30.08 in 10.0 mi WNW 17.3 mph - N/A   Overcast
3:55 PM 54.9 °F - 32.4 °F 42% 30.08 in 10.0 mi NW 15.0 mph 20.7 mph N/A   Overcast
4:15 PM 53.4 °F - 32.0 °F 44% 30.09 in 10.0 mi NW 13.8 mph 25.3 mph N/A   Overcast
4:35 PM 53.1 °F - 32.2 °F 45% 30.08 in 10.0 mi NNW 13.8 mph 20.7 mph N/A   Overcast
4:55 PM 52.7 °F - 32.9 °F 47% 30.08 in 10.0 mi NNW 12.7 mph 19.6 mph N/A   Overcast
5:15 PM 51.8 °F - 32.4 °F 48% 30.09 in 10.0 mi NW 12.7 mph 18.4 mph N/A   Overcast
5:35 PM 51.4 °F - 32.2 °F 48% 30.09 in 10.0 mi NNW 8.1 mph - N/A   Mostly Cloudy
5:55 PM 51.4 °F - 32.7 °F 49% 30.10 in 10.0 mi NW 9.2 mph - N/A   Overcast
6:15 PM 50.7 °F - 32.7 °F 50% 30.10 in 10.0 mi NW 4.6 mph - N/A   Overcast
6:35 PM 50.0 °F - 34.2 °F 55% 30.10 in 10.0 mi NW 3.5 mph - N/A   Overcast
6:55 PM 48.9 °F - 35.1 °F 59% 30.10 in 10.0 mi Calm Calm - N/A   Overcast
7:15 PM 48.6 °F - 35.1 °F 60% 30.10 in 10.0 mi Calm Calm - N/A   Mostly Cloudy
7:35 PM 47.1 °F - 36.1 °F 66% 30.10 in 10.0 mi Calm Calm - N/A   Mostly Cloudy
7:55 PM 44.6 °F - 37.2 °F 75% 30.10 in 10.0 mi Calm Calm - N/A   Scattered Clouds
8:15 PM 44.2 °F - 36.7 °F 75% 30.10 in 10.0 mi Calm Calm - N/A   Clear
8:35 PM 41.9 °F - 37.0 °F 83% 30.10 in 10.0 mi Calm Calm - N/A   Clear
8:55 PM 41.7 °F 39.8 °F 37.2 °F 84% 30.09 in 10.0 mi WNW 3.5 mph - N/A   Clear
9:15 PM 39.4 °F - 36.1 °F 88% 30.09 in 10.0 mi Calm Calm - N/A   Clear
9:35 PM 38.8 °F - 36.0 °F 89% 30.09 in 10.0 mi Calm Calm - N/A   Clear
9:55 PM 39.4 °F - 36.5 °F 89% 30.10 in 10.0 mi Calm Calm - N/A   Scattered Clouds
10:15 PM 41.4 °F 38.4 °F 38.5 °F 89% 30.09 in 10.0 mi NW 4.6 mph - N/A   Mostly Cloudy
10:35 PM 45.5 °F 44.2 °F 39.2 °F 79% 30.10 in 10.0 mi NW 3.5 mph - N/A   Overcast
10:55 PM 46.4 °F 45.2 °F 38.8 °F 75% 30.10 in 10.0 mi North 3.5 mph - N/A   Overcast
11:15 PM 46.4 °F - 38.7 °F 74% 30.09 in 10.0 mi Calm Calm - N/A   Overcast
11:35 PM 45.3 °F - 38.7 °F 78% 30.09 in 10.0 mi Calm Calm - N/A   Mostly Cloudy
11:55 PM 43.3 °F - 38.1 °F 82% 30.09 in 10.0 mi Calm Calm - N/A   Scattered Clouds